Tracking 19969 objects as of 12-Nov-2019
Live streaming from Space Station
objects crossing your sky now
Track the group of recently launched Starlink satellites

NOAA 16 DEB

Track NOAA 16 DEB now!
10-day predictions


NORAD ID: 41301
Int'l Code: 2000-055HD
Perigee: 852.7 km
Apogee: 892.7 km
Inclination: 98.8 °
Period: 102.3 minutes
Semi major axis: 7243 km
RCS: Unknown
Launch date: September 21, 2000
Source: United States (US)
Launch site: AIR FORCE WESTERN TEST RANGE (AFWTR)

Note: This is SATELLITE DEBRIS
aabbcc
Your satellite tracking list
Your tracking list is empty




NASA's NSSDC Master Catalog

Two Line Element Set (TLE):
1 41301U 00055HD  19316.00267316  .00000852  00000-0  52289-3 0  9998
2 41301  98.7974   9.4582 0027652 203.5426 156.4480 14.08197093199231
Source of the keplerian elements: AFSPC